| time (UTC) | temp C | wind direction | speed KPH | gust KPH | rain 1hr cm | rain 24hr cm | rain mn cm | humidity % | barometer mb |
| 20260902233815 | 15 | 263 | 4.8 | 20.9 | 0.00 | 0.00 | 0.00 | 85 | 1017.9 |
| 20260902233325 | 14 | 263 | 4.8 | 20.9 | 0.00 | 0.00 | 0.00 | 86 | 1017.9 |
| 20260902232817 | 14 | 263 | 4.8 | 20.9 | 0.00 | 0.00 | 0.00 | 86 | 1018.0 |
| 20260902232259 | 14 | 263 | 6.4 | 20.9 | 0.00 | 0.00 | 0.00 | 86 | 1018.0 |
| 20260902231745 | 14 | 263 | 8.0 | 19.3 | 0.00 | 0.00 | 0.00 | 86 | 1018.0 |
| 20260902231235 | 14 | 263 | 8.0 | 19.3 | 0.00 | 0.00 | 0.00 | 86 | 1017.6 |
| 20260902230731 | 14 | 263 | 8.0 | 19.3 | 0.00 | 0.00 | 0.00 | 86 | 1017.6 |
| 20260902230216 | 14 | 263 | 6.4 | 19.3 | 0.00 | 0.00 | 0.00 | 86 | 1017.6 |
| 20260902225715 | 14 | 263 | 4.8 | 19.3 | 0.00 | 0.00 | 0.00 | 87 | 1017.5 |
| 20260902225219 | 14 | 263 | 4.8 | 19.3 | 0.00 | 0.00 | 0.00 | 87 | 1017.5 |
| 20260902224702 | 14 | 263 | 4.8 | 17.7 | 0.00 | 0.00 | 0.00 | 87 | 1017.5 |
| 20260902224147 | 13 | 263 | 3.2 | 16.1 | 0.00 | 0.00 | 0.00 | 87 | 1017.1 |
| 20260902223632 | 13 | 263 | 4.8 | 14.5 | 0.00 | 0.00 | 0.00 | 88 | 1017.1 |
| 20260902222449 | 13 | 263 | 1.6 | 9.7 | 0.00 | 0.00 | 0.00 | 88 | 1017.0 |
| 20260902221935 | 13 | 263 | 3.2 | 12.9 | 0.00 | 0.00 | 0.00 | 88 | 1017.0 |
| 20260902221431 | 13 | 263 | 1.6 | 12.9 | 0.00 | 0.00 | 0.00 | 88 | 1017.0 |
| 20260902220936 | 13 | 263 | 1.6 | 16.1 | 0.00 | 0.00 | 0.00 | 87 | 1016.8 |
| 20260902220438 | 13 | 263 | 3.2 | 16.1 | 0.00 | 0.00 | 0.00 | 87 | 1016.8 |
| 20260902215943 | 13 | 263 | 3.2 | 16.1 | 0.00 | 0.00 | 0.00 | 87 | 1016.8 |
| 20260902215451 | 13 | 263 | 3.2 | 16.1 | 0.00 | 0.00 | 0.00 | 87 | 1016.6 |
| 20260902214952 | 13 | 263 | 3.2 | 14.5 | 0.00 | 0.00 | 0.00 | 87 | 1016.6 |
| 20260902214440 | 13 | 263 | 3.2 | 14.5 | 0.00 | 0.00 | 0.00 | 87 | 1016.6 |
| 20260902213927 | 13 | 263 | 3.2 | 11.3 | 0.00 | 0.00 | 0.00 | 87 | 1016.5 |
| 20260902213436 | 13 | 263 | 3.2 | 14.5 | 0.00 | 0.00 | 0.00 | 87 | 1016.5 |
| 20260902212945 | 13 | 263 | 3.2 | 14.5 | 0.00 | 0.00 | 0.00 | 87 | 1016.5 |
| 20260902212444 | 13 | 263 | 4.8 | 14.5 | 0.00 | 0.00 | 0.00 | 87 | 1016.4 |
| 20260902211939 | 13 | 263 | 3.2 | 14.5 | 0.00 | 0.00 | 0.00 | 87 | 1016.4 |
| 20260902211448 | 13 | 263 | 3.2 | 8.0 | 0.00 | 0.00 | 0.00 | 86 | 1016.4 |
| 20260902210937 | 13 | 263 | 1.6 | 12.9 | 0.00 | 0.00 | 0.00 | 86 | 1016.1 |
| 20260902210439 | 13 | 263 | 1.6 | 12.9 | 0.00 | 0.00 | 0.00 | 86 | 1016.1 |
| 20260902205938 | 13 | 263 | 3.2 | 14.5 | 0.00 | 0.00 | 0.00 | 86 | 1016.1 |
| 20260902205430 | 13 | 263 | 3.2 | 14.5 | 0.00 | 0.00 | 0.00 | 86 | 1016.0 |
| 20260902204915 | 13 | 263 | 3.2 | 14.5 | 0.00 | 0.00 | 0.00 | 86 | 1016.0 |
| 20260902204411 | 13 | 263 | 1.6 | 14.5 | 0.00 | 0.00 | 0.00 | 85 | 1016.0 |
| 20260902203916 | 13 | 263 | 1.6 | 9.7 | 0.00 | 0.00 | 0.00 | 85 | 1015.9 |
| 20260902202747 | 13 | 263 | 1.6 | 14.5 | 0.00 | 0.00 | 0.00 | 85 | 1015.8 |
| 20260902202238 | 13 | 263 | 3.2 | 16.1 | 0.00 | 0.00 | 0.00 | 85 | 1015.8 |
| 20260902201748 | 13 | 263 | 3.2 | 16.1 | 0.00 | 0.00 | 0.00 | 85 | 1015.8 |
| 20260902195950 | 13 | 263 | 4.8 | 17.7 | 0.00 | 0.00 | 0.00 | 84 | 1015.6 |
| 20260902195432 | 13 | 263 | 4.8 | 17.7 | 0.00 | 0.00 | 0.00 | 84 | 1015.4 |
| 20260902194920 | 13 | 263 | 4.8 | 17.7 | 0.00 | 0.00 | 0.00 | 84 | 1015.4 |
| 20260902194402 | 13 | 263 | 4.8 | 17.7 | 0.00 | 0.00 | 0.00 | 84 | 1015.4 |
| 20260902193300 | 13 | 263 | 4.8 | 16.1 | 0.00 | 0.00 | 0.00 | 84 | 1015.4 |
| 20260902192142 | 13 | 263 | 4.8 | 16.1 | 0.00 | 0.00 | 0.00 | 83 | 1015.3 |
| 20260902191629 | 13 | 263 | 4.8 | 20.9 | 0.00 | 0.00 | 0.00 | 83 | 1015.3 |
| 20260902190506 | 13 | 263 | 4.8 | 20.9 | 0.00 | 0.00 | 0.00 | 83 | 1015.0 |
| 20260902185956 | 13 | 263 | 6.4 | 20.9 | 0.00 | 0.00 | 0.00 | 83 | 1015.0 |
| 20260902185446 | 13 | 263 | 4.8 | 20.9 | 0.00 | 0.00 | 0.00 | 82 | 1014.9 |
| 20260902184949 | 13 | 263 | 3.2 | 20.9 | 0.00 | 0.00 | 0.00 | 82 | 1014.9 |
| 20260902184445 | 13 | 263 | 3.2 | 20.9 | 0.00 | 0.00 | 0.00 | 82 | 1014.9 |
| 20260902183937 | 13 | 263 | 4.8 | 20.9 | 0.00 | 0.00 | 0.00 | 82 | 1014.9 |
| 20260902183430 | 13 | 263 | 4.8 | 14.5 | 0.00 | 0.00 | 0.00 | 81 | 1014.9 |
| 20260902182918 | 13 | 263 | 3.2 | 12.9 | 0.00 | 0.00 | 0.00 | 81 | 1014.9 |
| 20260902182426 | 13 | 263 | 3.2 | 20.9 | 0.00 | 0.00 | 0.00 | 81 | 1014.9 |
| 20260902181926 | 13 | 263 | 4.8 | 20.9 | 0.00 | 0.00 | 0.00 | 81 | 1014.9 |
| 20260902181421 | 13 | 263 | 6.4 | 20.9 | 0.00 | 0.00 | 0.00 | 81 | 1014.9 |
| 20260902180232 | 13 | 263 | 3.2 | 20.9 | 0.00 | 0.00 | 0.00 | 80 | 1014.9 |
| 20260902175717 | 13 | 263 | 4.8 | 19.3 | 0.00 | 0.00 | 0.00 | 80 | 1014.9 |
| 20260902175219 | 13 | 263 | 6.4 | 19.3 | 0.00 | 0.00 | 0.00 | 80 | 1014.9 |
| 20260902174716 | 13 | 263 | 4.8 | 17.7 | 0.00 | 0.00 | 0.00 | 79 | 1014.9 |
| 20260902173552 | 13 | 263 | 3.2 | 14.5 | 0.00 | 0.00 | 0.00 | 79 | 1015.0 |
| 20260902173057 | 13 | 263 | 4.8 | 14.5 | 0.00 | 0.00 | 0.00 | 78 | 1015.0 |
| 20260902172540 | 13 | 263 | 4.8 | 19.3 | 0.00 | 0.00 | 0.00 | 78 | 1015.1 |
| 20260902172039 | 13 | 263 | 3.2 | 19.3 | 0.00 | 0.00 | 0.00 | 78 | 1015.1 |
| 20260902171532 | 13 | 263 | 4.8 | 19.3 | 0.00 | 0.00 | 0.00 | 77 | 1015.1 |
| 20260902171014 | 13 | 263 | 4.8 | 19.3 | 0.00 | 0.00 | 0.00 | 77 | 1015.2 |
| 20260902170502 | 13 | 263 | 3.2 | 14.5 | 0.00 | 0.00 | 0.00 | 77 | 1015.2 |
| 20260902170006 | 13 | 263 | 3.2 | 14.5 | 0.00 | 0.00 | 0.00 | 76 | 1015.2 |
| 20260902165509 | 13 | 263 | 3.2 | 14.5 | 0.00 | 0.00 | 0.00 | 76 | 1015.3 |
| 20260902164329 | 13 | 263 | 1.6 | 9.7 | 0.00 | 0.00 | 0.00 | 76 | 1015.4 |
| 20260902163821 | 13 | 263 | 1.6 | 9.7 | 0.00 | 0.00 | 0.00 | 76 | 1015.4 |
| 20260902162632 | 12 | 263 | 3.2 | 14.5 | 0.00 | 0.00 | 0.00 | 76 | 1015.5 |
| 20260902162117 | 12 | 263 | 3.2 | 17.7 | 0.00 | 0.00 | 0.00 | 77 | 1015.5 |
| 20260902161607 | 12 | 263 | 3.2 | 17.7 | 0.00 | 0.00 | 0.00 | 76 | 1015.5 |
| 20260902155831 | 12 | 263 | 8.0 | 25.7 | 0.00 | 0.00 | 0.00 | 77 | 1015.8 |
| 20260902154708 | 12 | 263 | 3.2 | 14.5 | 0.00 | 0.00 | 0.00 | 78 | 1015.8 |
| 20260902152941 | 12 | 263 | 3.2 | 19.3 | 0.00 | 0.00 | 0.00 | 77 | 1015.6 |
| 20260902152448 | 12 | 263 | 4.8 | 19.3 | 0.00 | 0.00 | 0.00 | 77 | 1015.6 |
| 20260902151310 | 12 | 263 | 4.8 | 25.7 | 0.00 | 0.00 | 0.00 | 77 | 1015.9 |
| 20260902150809 | 12 | 263 | 6.4 | 25.7 | 0.00 | 0.00 | 0.00 | 76 | 1015.9 |
| 20260902150253 | 13 | 263 | 11.3 | 25.7 | 0.00 | 0.00 | 0.00 | 75 | 1015.9 |
| 20260902145737 | 13 | 263 | 9.7 | 25.7 | 0.00 | 0.00 | 0.00 | 74 | 1015.7 |
| 20260902145234 | 13 | 263 | 6.4 | 17.7 | 0.00 | 0.00 | 0.00 | 74 | 1015.7 |
| 20260902144741 | 13 | 263 | 4.8 | 14.5 | 0.00 | 0.00 | 0.00 | 74 | 1015.7 |
| 20260902144228 | 13 | 263 | 3.2 | 14.5 | 0.00 | 0.00 | 0.00 | 75 | 1015.8 |
| 20260902143737 | 13 | 263 | 1.6 | 14.5 | 0.00 | 0.00 | 0.00 | 75 | 1015.8 |
| 20260902143243 | 13 | 263 | 1.6 | 9.7 | 0.00 | 0.00 | 0.00 | 75 | 1015.8 |
| 20260902142745 | 13 | 263 | 3.2 | 16.1 | 0.00 | 0.00 | 0.00 | 75 | 1015.9 |
| 20260902142231 | 13 | 263 | 4.8 | 16.1 | 0.00 | 0.00 | 0.00 | 75 | 1015.9 |
| 20260902140545 | 13 | 263 | 4.8 | 12.9 | 0.00 | 0.00 | 0.00 | 75 | 1016.0 |
| 20260902140042 | 13 | 263 | 4.8 | 24.1 | 0.00 | 0.00 | 0.00 | 75 | 1016.0 |
| 20260902135551 | 13 | 263 | 4.8 | 24.1 | 0.00 | 0.00 | 0.00 | 75 | 1016.2 |
| 20260902135046 | 13 | 263 | 6.4 | 24.1 | 0.00 | 0.00 | 0.00 | 75 | 1016.2 |
| 20260902134535 | 13 | 263 | 8.0 | 24.1 | 0.00 | 0.00 | 0.00 | 75 | 1016.2 |
| 20260902133412 | 13 | 263 | 6.4 | 16.1 | 0.00 | 0.00 | 0.00 | 75 | 1016.2 |
| 20260902132920 | 13 | 263 | 4.8 | 16.1 | 0.00 | 0.00 | 0.00 | 75 | 1016.2 |
| 20260902132404 | 13 | 263 | 4.8 | 16.1 | 0.00 | 0.00 | 0.00 | 74 | 1016.1 |
| 20260902131852 | 13 | 263 | 6.4 | 16.1 | 0.00 | 0.00 | 0.00 | 74 | 1016.1 |
| 20260902131359 | 13 | 263 | 6.4 | 16.1 | 0.00 | 0.00 | 0.00 | 74 | 1016.2 |
| 20260902130900 | 13 | 263 | 4.8 | 16.1 | 0.00 | 0.00 | 0.00 | 73 | 1016.2 |
| 20260902130408 | 13 | 263 | 4.8 | 19.3 | 0.00 | 0.00 | 0.00 | 73 | 1016.2 |
| 20260902125905 | 13 | 263 | 4.8 | 19.3 | 0.00 | 0.00 | 0.00 | 73 | 1016.3 |
| 20260902124149 | 13 | 263 | 4.8 | 17.7 | 0.00 | 0.00 | 0.00 | 72 | 1016.4 |
| 20260902123649 | 12 | 263 | 4.8 | 17.7 | 0.00 | 0.00 | 0.00 | 72 | 1016.4 |
| 20260902123151 | 12 | 263 | 8.0 | 17.7 | 0.00 | 0.00 | 0.00 | 73 | 1016.4 |
| 20260902122650 | 12 | 263 | 6.4 | 16.1 | 0.00 | 0.00 | 0.00 | 74 | 1016.5 |
| 20260902122134 | 12 | 263 | 6.4 | 14.5 | 0.00 | 0.00 | 0.00 | 76 | 1016.5 |
| 20260902121616 | 12 | 263 | 6.4 | 14.5 | 0.00 | 0.00 | 0.00 | 77 | 1016.5 |
| 20260902121059 | 12 | 263 | 3.2 | 9.7 | 0.00 | 0.00 | 0.00 | 78 | 1016.5 |
| 20260902120558 | 12 | 263 | 1.6 | 8.0 | 0.00 | 0.00 | 0.00 | 79 | 1016.5 |
| 20260902120049 | 12 | 263 | 1.6 | 6.4 | 0.00 | 0.00 | 0.00 | 79 | 1016.5 |
| 20260902115548 | 12 | 263 | 1.6 | 6.4 | 0.00 | 0.00 | 0.00 | 79 | 1016.4 |
| 20260902115047 | 12 | 263 | 1.6 | 8.0 | 0.00 | 0.00 | 0.00 | 79 | 1016.4 |
| 20260902114531 | 12 | 263 | 0.0 | 8.0 | 0.00 | 0.00 | 0.00 | 79 | 1016.4 |
| 20260902114029 | 12 | 263 | 0.0 | 4.8 | 0.00 | 0.00 | 0.00 | 79 | 1016.4 |
| 20260902113509 | 12 | 263 | 0.0 | 4.8 | 0.00 | 0.00 | 0.00 | 79 | 1016.4 |
| 20260902112329 | 12 | 263 | 1.6 | 9.7 | 0.00 | 0.00 | 0.00 | 79 | 1016.2 |
| 20260902111820 | 12 | 263 | 1.6 | 9.7 | 0.00 | 0.00 | 0.00 | 79 | 1016.2 |
| 20260902110700 | 12 | 263 | 0.0 | 6.4 | 0.00 | 0.00 | 0.00 | 78 | 1016.2 |
| 20260902110140 | 12 | 263 | 0.0 | 4.8 | 0.00 | 0.00 | 0.00 | 77 | 1016.2 |
| 20260902105648 | 12 | 263 | 0.0 | 4.8 | 0.00 | 0.00 | 0.00 | 76 | 1016.0 |
| 20260902105134 | 12 | 263 | 1.6 | 9.7 | 0.00 | 0.00 | 0.00 | 76 | 1016.0 |
| 20260902103358 | 12 | 263 | 8.0 | 27.4 | 0.00 | 0.00 | 0.00 | 76 | 1016.0 |
| 20260902102857 | 12 | 263 | 9.7 | 27.4 | 0.00 | 0.00 | 0.00 | 76 | 1015.9 |
| 20260902101729 | 13 | 263 | 8.0 | 27.4 | 0.00 | 0.00 | 0.00 | 72 | 1015.9 |
| 20260902100620 | 13 | 263 | 4.8 | 17.7 | 0.00 | 0.00 | 0.00 | 67 | 1015.6 |
| 20260902100108 | 13 | 263 | 4.8 | 17.7 | 0.00 | 0.00 | 0.00 | 67 | 1015.6 |
| 20260902094944 | 13 | 263 | 4.8 | 16.1 | 0.00 | 0.00 | 0.00 | 65 | 1015.4 |
| 20260902094453 | 13 | 263 | 3.2 | 14.5 | 0.00 | 0.00 | 0.00 | 65 | 1015.4 |
| 20260902093938 | 13 | 263 | 3.2 | 9.7 | 0.00 | 0.00 | 0.00 | 65 | 1015.3 |
| 20260902092759 | 13 | 263 | 1.6 | 11.3 | 0.00 | 0.00 | 0.00 | 65 | 1015.0 |
| 20260902092250 | 13 | 263 | 1.6 | 12.9 | 0.00 | 0.00 | 0.00 | 66 | 1015.0 |
| 20260902091731 | 13 | 263 | 3.2 | 12.9 | 0.00 | 0.00 | 0.00 | 65 | 1015.0 |
| 20260902091236 | 13 | 263 | 3.2 | 16.1 | 0.00 | 0.00 | 0.00 | 64 | 1015.1 |
| 20260902090731 | 13 | 263 | 3.2 | 16.1 | 0.00 | 0.00 | 0.00 | 65 | 1015.1 |
| 20260902090237 | 13 | 263 | 4.8 | 16.1 | 0.00 | 0.00 | 0.00 | 65 | 1015.1 |
| 20260902085741 | 13 | 263 | 4.8 | 16.1 | 0.00 | 0.00 | 0.00 | 66 | 1014.9 |
| 20260902084620 | 13 | 263 | 4.8 | 14.5 | 0.00 | 0.00 | 0.00 | 67 | 1014.9 |
| 20260902082844 | 13 | 263 | 4.8 | 16.1 | 0.00 | 0.00 | 0.00 | 66 | 1014.8 |
| 20260902082348 | 13 | 263 | 4.8 | 16.1 | 0.00 | 0.00 | 0.00 | 66 | 1014.8 |
| 20260902081849 | 13 | 263 | 4.8 | 16.1 | 0.00 | 0.00 | 0.00 | 65 | 1014.8 |
| 20260902080105 | 14 | 263 | 4.8 | 16.1 | 0.00 | 0.00 | 0.00 | 66 | 1014.6 |
| 20260902075550 | 14 | 263 | 6.4 | 17.7 | 0.00 | 0.00 | 0.00 | 66 | 1014.7 |
| 20260902075054 | 14 | 263 | 6.4 | 17.7 | 0.00 | 0.00 | 0.00 | 65 | 1014.7 |
| 20260902074549 | 14 | 263 | 8.0 | 20.9 | 0.00 | 0.00 | 0.00 | 65 | 1014.7 |
| 20260902073420 | 14 | 263 | 6.4 | 20.9 | 0.00 | 0.00 | 0.00 | 64 | 1014.6 |
| 20260902072919 | 14 | 263 | 6.4 | 20.9 | 0.00 | 0.00 | 0.00 | 65 | 1014.6 |
| 20260902071736 | 14 | 263 | 3.2 | 14.5 | 0.00 | 0.00 | 0.00 | 65 | 1014.6 |
| 20260902071238 | 14 | 263 | 4.8 | 14.5 | 0.00 | 0.00 | 0.00 | 65 | 1014.8 |
| 20260902070720 | 14 | 263 | 3.2 | 14.5 | 0.00 | 0.00 | 0.00 | 65 | 1014.8 |
| 20260902070219 | 15 | 263 | 4.8 | 14.5 | 0.00 | 0.00 | 0.00 | 64 | 1014.8 |
| 20260902065722 | 15 | 263 | 4.8 | 14.5 | 0.00 | 0.00 | 0.00 | 63 | 1014.7 |
| 20260902065211 | 15 | 263 | 4.8 | 14.5 | 0.00 | 0.00 | 0.00 | 64 | 1014.7 |
| 20260902064656 | 15 | 263 | 3.2 | 14.5 | 0.00 | 0.03 | 0.00 | 63 | 1014.7 |
| 20260902064142 | 15 | 263 | 3.2 | 12.9 | 0.00 | 0.05 | 0.00 | 63 | 1014.8 |
| 20260902063034 | 15 | 263 | 3.2 | 14.5 | 0.00 | 0.08 | 0.00 | 62 | 1014.8 |
| 20260902062524 | 15 | 263 | 3.2 | 14.5 | 0.00 | 0.10 | 0.00 | 62 | 1014.8 |
| 20260902062006 | 15 | 263 | 4.8 | 14.5 | 0.00 | 0.13 | 0.00 | 61 | 1014.8 |
| 20260902061451 | 15 | 263 | 3.2 | 11.3 | 0.00 | 0.15 | 0.00 | 61 | 1014.8 |
| 20260902055832 | 15 | 263 | 3.2 | 12.9 | 0.00 | 0.28 | 0.00 | 60 | 1014.9 |
| 20260902055314 | 15 | 263 | 4.8 | 12.9 | 0.00 | 0.28 | 0.00 | 61 | 1014.9 |
| 20260902054755 | 15 | 263 | 4.8 | 12.9 | 0.00 | 0.28 | 0.00 | 61 | 1014.9 |
| 20260902054305 | 15 | 263 | 4.8 | 11.3 | 0.00 | 0.28 | 0.00 | 62 | 1014.9 |
| 20260902053813 | 15 | 263 | 4.8 | 11.3 | 0.00 | 0.28 | 0.00 | 61 | 1014.9 |
| 20260902053318 | 15 | 263 | 3.2 | 9.7 | 0.00 | 0.28 | 0.00 | 61 | 1014.9 |
| 20260902052816 | 15 | 263 | 4.8 | 16.1 | 0.00 | 0.28 | 0.00 | 60 | 1014.9 |
| 20260902052309 | 15 | 263 | 4.8 | 16.1 | 0.00 | 0.28 | 0.00 | 60 | 1014.9 |
| 20260902051812 | 15 | 263 | 6.4 | 16.1 | 0.00 | 0.28 | 0.00 | 60 | 1014.9 |
| 20260902051304 | 15 | 263 | 6.4 | 16.1 | 0.00 | 0.28 | 0.00 | 60 | 1014.9 |
| 20260902050758 | 15 | 263 | 4.8 | 14.5 | 0.00 | 0.28 | 0.00 | 59 | 1014.9 |
| 20260902050237 | 15 | 263 | 4.8 | 9.7 | 0.00 | 0.28 | 0.00 | 59 | 1014.9 |
| 20260902045731 | 15 | 263 | 4.8 | 16.1 | 0.00 | 0.28 | 0.00 | 61 | 1015.0 |
| 20260902045240 | 15 | 263 | 4.8 | 16.1 | 0.00 | 0.28 | 0.00 | 62 | 1015.0 |
| 20260902044056 | 15 | 263 | 4.8 | 22.5 | 0.00 | 0.28 | 0.00 | 62 | 1015.2 |
| 20260902043550 | 15 | 263 | 8.0 | 22.5 | 0.00 | 0.28 | 0.00 | 61 | 1015.2 |
| 20260902043036 | 15 | 263 | 6.4 | 22.5 | 0.00 | 0.28 | 0.00 | 61 | 1015.2 |
| 20260902041913 | 15 | 263 | 6.4 | 16.1 | 0.00 | 0.28 | 0.00 | 61 | 1015.4 |
| 20260902041412 | 15 | 263 | 6.4 | 14.5 | 0.00 | 0.28 | 0.00 | 62 | 1015.4 |
| 20260902040903 | 15 | 263 | 6.4 | 20.9 | 0.00 | 0.28 | 0.00 | 61 | 1015.5 |
| 20260902040344 | 16 | 263 | 8.0 | 20.9 | 0.00 | 0.28 | 0.00 | 62 | 1015.5 |
| 20260902035854 | 15 | 263 | 6.4 | 20.9 | 0.00 | 0.28 | 0.00 | 62 | 1015.5 |
| 20260902035401 | 15 | 263 | 4.8 | 20.9 | 0.00 | 0.28 | 0.00 | 63 | 1015.5 |
| 20260902034906 | 15 | 263 | 3.2 | 12.9 | 0.00 | 0.28 | 0.00 | 63 | 1015.5 |
| 20260902034356 | 15 | 263 | 4.8 | 17.7 | 0.00 | 0.28 | 0.00 | 63 | 1015.8 |
| 20260902033851 | 15 | 263 | 6.4 | 17.7 | 0.00 | 0.28 | 0.00 | 65 | 1015.8 |
| 20260902033400 | 15 | 263 | 6.4 | 17.7 | 0.00 | 0.28 | 0.00 | 66 | 1015.8 |
| 20260902032900 | 14 | 263 | 6.4 | 17.7 | 0.00 | 0.28 | 0.00 | 65 | 1015.9 |
| 20260902032349 | 14 | 263 | 6.4 | 16.1 | 0.00 | 0.28 | 0.00 | 65 | 1015.9 |
| 20260902031227 | 14 | 263 | 6.4 | 16.1 | 0.00 | 0.28 | 0.00 | 66 | 1016.0 |
| 20260902030732 | 14 | 263 | 8.0 | 16.1 | 0.00 | 0.28 | 0.00 | 66 | 1016.0 |
| 20260902030228 | 14 | 263 | 6.4 | 16.1 | 0.00 | 0.28 | 0.00 | 66 | 1016.0 |
| 20260902025721 | 14 | 263 | 4.8 | 17.7 | 0.00 | 0.28 | 0.00 | 66 | 1016.2 |
| 20260902025228 | 14 | 263 | 6.4 | 17.7 | 0.00 | 0.28 | 0.00 | 66 | 1016.2 |
| 20260902024731 | 14 | 263 | 6.4 | 27.4 | 0.00 | 0.28 | 0.00 | 66 | 1016.2 |
| 20260902024223 | 14 | 263 | 4.8 | 27.4 | 0.00 | 0.28 | 0.00 | 68 | 1016.4 |
| 20260902023723 | 13 | 263 | 8.0 | 27.4 | 0.00 | 0.28 | 0.00 | 69 | 1016.4 |
| 20260902022552 | 14 | 263 | 9.7 | 19.3 | 0.00 | 0.28 | 0.00 | 70 | 1016.5 |
| 20260902022057 | 14 | 263 | 11.3 | 19.3 | 0.00 | 0.28 | 0.00 | 71 | 1016.5 |
| 20260902020942 | 14 | 263 | 8.0 | 20.9 | 0.00 | 0.28 | 0.00 | 74 | 1016.6 |
| 20260902020442 | 14 | 263 | 8.0 | 20.9 | 0.00 | 0.28 | 0.00 | 75 | 1016.6 |
| 20260902015936 | 14 | 263 | 9.7 | 20.9 | 0.00 | 0.28 | 0.00 | 74 | 1016.6 |
| 20260902015445 | 14 | 263 | 8.0 | 17.7 | 0.00 | 0.28 | 0.00 | 73 | 1016.8 |
| 20260902014934 | 15 | 263 | 6.4 | 17.7 | 0.00 | 0.28 | 0.00 | 71 | 1016.8 |
| 20260902013740 | 14 | 263 | 6.4 | 16.1 | 0.00 | 0.28 | 0.00 | 66 | 1016.9 |
| 20260902012636 | 14 | 263 | 4.8 | 12.9 | 0.00 | 0.28 | 0.00 | 67 | 1017.0 |
| 20260902012123 | 14 | 263 | 4.8 | 16.1 | 0.00 | 0.28 | 0.00 | 68 | 1017.0 |
| 20260902011624 | 14 | 263 | 6.4 | 16.1 | 0.00 | 0.28 | 0.00 | 70 | 1017.0 |
| 20260902011106 | 14 | 263 | 6.4 | 19.3 | 0.00 | 0.28 | 0.00 | 70 | 1017.0 |
| 20260902010608 | 14 | 263 | 6.4 | 19.3 | 0.00 | 0.28 | 0.00 | 70 | 1017.0 |
| 20260902010057 | 14 | 263 | 8.0 | 19.3 | 0.00 | 0.28 | 0.00 | 70 | 1017.0 |
| 20260902005544 | 14 | 263 | 6.4 | 16.1 | 0.00 | 0.28 | 0.00 | 72 | 1017.3 |
| 20260902005035 | 14 | 263 | 6.4 | 16.1 | 0.00 | 0.28 | 0.00 | 73 | 1017.3 |
| 20260902004537 | 13 | 263 | 6.4 | 14.5 | 0.00 | 0.28 | 0.00 | 73 | 1017.3 |
| 20260902004038 | 14 | 263 | 6.4 | 14.5 | 0.00 | 0.28 | 0.00 | 73 | 1017.5 |
| 20260902003530 | 14 | 263 | 6.4 | 14.5 | 0.00 | 0.28 | 0.00 | 72 | 1017.5 |
| 20260902003038 | 13 | 263 | 6.4 | 14.5 | 0.00 | 0.28 | 0.00 | 72 | 1017.5 |
| 20260902002526 | 13 | 263 | 4.8 | 17.7 | 0.00 | 0.28 | 0.00 | 73 | 1017.5 |
| 20260902002026 | 13 | 263 | 4.8 | 17.7 | 0.00 | 0.28 | 0.00 | 73 | 1017.5 |
| 20260902001535 | 13 | 263 | 6.4 | 17.7 | 0.00 | 0.28 | 0.00 | 75 | 1017.5 |
| 20260902001041 | 13 | 263 | 6.4 | 17.7 | 0.00 | 0.28 | 0.00 | 76 | 1017.5 |
| 20260901235922 | 13 | 263 | 6.4 | 16.1 | 0.00 | 0.28 | 0.00 | 78 | 1017.5 |
| 20260901235413 | 13 | 263 | 6.4 | 16.1 | 0.00 | 0.28 | 0.00 | 78 | 1017.5 |
| 20260901234912 | 13 | 263 | 4.8 | 16.1 | 0.00 | 0.28 | 0.00 | 79 | 1017.5 |
| 20260901234410 | 13 | 263 | 4.8 | 14.5 | 0.00 | 0.28 | 0.00 | 80 | 1017.5 |